{"data":{"norad_id":60315,"epoch":"2026-09-21T19:05:28.800672Z","epoch_age_seconds":73702,"freshness":"FRESH","line1":"1 60315U 24133Q   26264.79547223 -.00000094  00000+0  83628-5 0  9992","line2":"2 60315  53.1595 103.4308 0001192  98.4399 261.6739 15.34387732121707","mean_motion":15.34387732,"eccentricity":0.0001192,"inclination_deg":53.1595,"raan_deg":103.4308,"arg_perigee_deg":98.4399,"mean_anomaly_deg":261.6739,"bstar":8.3628e-6,"rev_number":12170,"period_min":93.848508429029,"perigee_km":461.92427102835,"apogee_km":463.55513603448,"semimajor_km":6840.8767035314,"source":"CELESTRAK","updated_at":"2026-09-22T09:00:49.216959Z"}}